VK5GR-12 Weather Reports


time (UTC)temp
C
wind
direction
speed
KPH
gust
KPH
rain 1hr
cm
rain 24hr
cm
rain mn
cm
humidity
%
barometer
mb
20260504210155 11 264 0.0 0.0 0.00 0.18 0.18 99 1021.6
20260504204654 11 259 0.0 0.0 0.00 0.18 0.18 99 1021.6
20260504203154 11 270 0.0 0.0 0.00 0.18 0.18 99 1021.6
20260504201654 11 270 0.0 0.0 0.00 0.18 0.18 99 1021.4
20260504200151 12 275 0.0 0.0 0.00 0.18 0.18 99 1021.2
20260504194646 11 268 0.0 0.0 0.00 0.18 0.18 99 1021.3
20260504193142 11 268 0.0 0.0 0.00 0.18 0.18 99 1021.1
20260504191642 11 250 0.0 0.0 0.00 0.15 0.15 99 1020.9
20260504190137 11 264 0.0 0.0 0.00 0.15 0.15 98 1020.8
20260504184638 11 264 0.0 0.0 0.00 0.15 0.15 98 1020.8
20260504183133 12 287 0.0 0.0 0.00 0.15 0.15 98 1020.7
20260504181631 11 291 0.0 0.0 0.18 0.13 0.13 98 1020.5
20260504180126 11 274 0.0 0.0 0.00 0.10 0.10 98 1020.5
20260504174624 12 266 0.0 0.0 0.00 0.10 0.10 98 1020.6
20260504173120 11 269 0.0 0.0 0.18 0.10 0.10 98 1020.6
20260504171615 11 285 0.0 0.0 0.00 0.08 0.08 98 1020.7
20260504170112 11 278 0.0 0.0 0.00 0.08 0.08 98 1020.9
20260504081435 15 292 1.6 1.6 0.00 0.99 0.99 74 1017.0
20260504045855 19 308 1.6 3.2 0.00 0.99 0.99 62 1015.1
20260504044350 18 292 1.6 1.6 0.00 0.99 0.99 63 1014.9
20260504042847 18 271 6.4 9.7 0.00 0.99 0.99 62 1014.7
20260504041342 17 334 0.0 1.6 0.00 0.99 0.99 66 1014.7
20260504035837 18 351 3.2 4.8 0.00 0.99 0.99 65 1014.8
20260504034336 18 301 4.8 6.4 0.00 0.99 0.99 66 1014.6
20260504032832 17 291 0.0 1.6 0.00 0.99 0.99 68 1014.7
20260504031330 17 281 4.8 4.8 0.00 0.99 0.99 69 1014.8
20260504025825 17 277 0.0 1.6 0.00 0.99 0.99 71 1014.9
20260504024321 18 286 3.2 4.8 0.00 0.99 0.99 68 1014.8
20260504022816 17 284 3.2 4.8 0.00 0.99 0.99 73 1015.0
20260504021314 16 276 1.6 1.6 0.00 0.99 0.99 81 1015.1
20260504015809 16 301 4.8 6.4 0.00 0.99 0.99 75 1015.0
20260504014303 16 281 6.4 9.7 0.00 0.99 0.99 73 1014.9
20260504012801 16 310 3.2 6.4 0.00 0.99 0.99 76 1014.7
20260504011258 16 317 3.2 4.8 0.00 0.99 0.99 73 1014.6
20260504005758 16 260 4.8 6.4 0.00 0.99 0.99 77 1014.5
20260504004256 15 280 3.2 3.2 0.00 0.99 0.99 85 1014.4
20260504002751 15 283 1.6 1.6 0.00 0.99 0.99 87 1014.2
20260504001248 15 293 4.8 6.4 0.00 0.99 0.99 86 1014.2
20260503235746 15 336 6.4 9.7 0.00 0.99 0.99 89 1013.9
20260503234245 15 3 8.0 11.3 0.13 0.99 0.99 89 1013.7
20260503232740 15 324 4.8 6.4 0.00 0.97 0.97 89 1013.6
20260503231238 14 322 3.2 6.4 0.00 0.97 0.97 92 1013.3
20260503225735 13 335 1.6 3.2 0.00 0.97 0.97 93 1013.2
20260503224236 13 303 3.2 3.2 0.00 0.97 0.97 93 1013.1
20260503222732 13 300 8.0 9.7 0.18 0.97 0.97 93 1012.6
20260503221231 13 284 3.2 4.8 0.00 0.94 0.94 93 1012.6
20260503215727 13 308 3.2 4.8 0.00 0.94 0.94 93 1012.4
20260503214224 13 311 1.6 1.6 0.00 0.94 0.94 93 1012.2
20260503212722 13 318 4.8 6.4 0.00 0.94 0.94 93 1012.3
20260503211219 13 300 3.2 4.8 0.18 0.91 0.91 92 1011.9